TimeMST,TemperatureF,Dew PointF,Humidity,Sea Level PressureIn,VisibilityMPH,Wind Direction,Wind SpeedMPH,Gust SpeedMPH,PrecipitationIn,Events,Conditions,WindDirDegrees,DateUTC
12:04 AM,37.4,37.4,100,29.99,10.0,WSW,6.9,-,0.00,,Overcast,240,2013-01-27 07:04:00
12:14 AM,37.4,37.4,100,29.99,6.0,WSW,9.2,-,0.00,Rain,Light Rain,240,2013-01-27 07:14:00
12:57 AM,37.9,37.0,97,29.88,5.0,WSW,10.4,-,0.01,Rain,Light Rain,250,2013-01-27 07:57:00
1:20 AM,37.4,37.4,100,29.99,6.0,SW,11.5,-,0.01,Rain,Light Rain,230,2013-01-27 08:20:00
1:33 AM,37.4,37.4,100,29.98,5.0,SW,10.4,-,0.01,Rain,Light Rain,230,2013-01-27 08:33:00
1:50 AM,37.4,37.4,100,29.99,8.0,WSW,10.4,-,0.02,Rain,Light Rain,240,2013-01-27 08:50:00
1:57 AM,37.9,37.0,97,29.88,7.0,WSW,9.2,-,0.02,Rain,Light Rain,240,2013-01-27 08:57:00
2:23 AM,37.4,35.6,93,29.99,7.0,WSW,9.2,-,0.01,Rain,Light Rain,240,2013-01-27 09:23:00
2:31 AM,37.4,35.6,93,29.99,8.0,WSW,10.4,-,0.01,Rain,Light Rain,240,2013-01-27 09:31:00
2:42 AM,37.4,35.6,93,29.99,8.0,WSW,11.5,-,0.01,Rain,Light Rain,250,2013-01-27 09:42:00
2:57 AM,37.0,36.0,96,29.90,10.0,WSW,9.2,19.6,0.01,Rain,Light Rain,240,2013-01-27 09:57:00
3:34 AM,37.4,35.6,93,29.99,10.0,WSW,6.9,-,0.00,,Overcast,240,2013-01-27 10:34:00
3:41 AM,37.4,35.6,93,29.99,10.0,WSW,9.2,-,0.00,,Overcast,240,2013-01-27 10:41:00
3:57 AM,37.0,36.0,96,29.88,10.0,WSW,9.2,-,0.00,,Overcast,240,2013-01-27 10:57:00
4:13 AM,37.4,35.6,93,29.98,10.0,WSW,9.2,-,0.00,Rain,Light Rain,240,2013-01-27 11:13:00
4:57 AM,37.0,35.1,93,29.88,10.0,WSW,9.2,-,0.01,,Overcast,240,2013-01-27 11:57:00
5:11 AM,37.4,35.6,93,29.98,9.0,WSW,9.2,-,0.00,Rain,Light Rain,250,2013-01-27 12:11:00
5:18 AM,37.4,35.6,93,29.98,9.0,WSW,8.1,-,0.01,Rain,Light Rain,250,2013-01-27 12:18:00
5:32 AM,37.4,35.6,93,29.98,10.0,West,6.9,-,0.01,Rain,Light Rain,260,2013-01-27 12:32:00
5:45 AM,35.6,35.6,100,29.98,8.0,WSW,5.8,-,0.01,Rain,Light Rain,250,2013-01-27 12:45:00
5:54 AM,35.6,35.6,100,29.98,8.0,WSW,6.9,-,0.02,Rain,Light Rain,250,2013-01-27 12:54:00
5:57 AM,36.0,35.1,97,29.88,7.0,West,5.8,-,0.02,Rain,Light Rain,260,2013-01-27 12:57:00
6:14 AM,37.4,35.6,93,29.98,6.0,West,5.8,-,0.01,Rain,Light Rain,260,2013-01-27 13:14:00
6:57 AM,37.0,36.0,96,29.88,5.0,WSW,4.6,-,0.06,Rain,Light Rain,250,2013-01-27 13:57:00
7:57 AM,37.9,37.0,97,29.88,4.0,SW,9.2,-,0.03,Rain,Light Rain,220,2013-01-27 14:57:00
8:57 AM,37.9,37.0,97,29.89,6.0,SW,10.4,-,0.02,Rain,Light Rain,230,2013-01-27 15:57:00
9:57 AM,39.0,37.0,93,29.90,8.0,SW,12.7,-,0.01,Rain,Light Rain,230,2013-01-27 16:57:00
10:40 AM,37.4,35.6,93,30.02,10.0,WSW,10.4,19.6,0.02,Rain,Light Rain,250,2013-01-27 17:40:00
10:57 AM,37.9,36.0,93,29.92,10.0,WSW,13.8,24.2,0.02,Rain,Light Rain,240,2013-01-27 17:57:00
11:54 AM,41.0,37.0,86,29.88,10.0,SW,15.0,24.2,0.00,Rain,Light Rain,220,2013-01-27 18:54:00
12:11 PM,39.2,35.6,87,29.99,10.0,SW,13.8,24.2,0.00,,Mostly Cloudy,220,2013-01-27 19:11:00
12:38 PM,39.2,35.6,87,29.98,7.0,SW,12.7,-,0.02,,Overcast,220,2013-01-27 19:38:00
12:57 PM,39.0,37.0,93,29.87,10.0,SW,11.5,-,0.03,,Overcast,230,2013-01-27 19:57:00
1:04 PM,39.2,37.4,93,29.97,9.0,SSW,13.8,-,0.00,Rain,Light Rain,210,2013-01-27 20:04:00
1:18 PM,37.4,37.4,100,29.96,2.5,SW,10.4,21.9,0.04,Rain,Rain,230,2013-01-27 20:18:00
1:27 PM,37.4,35.6,93,29.97,5.0,SW,12.7,-,0.06,Rain,Light Rain,230,2013-01-27 20:27:00
1:34 PM,39.2,37.4,93,29.96,9.0,SW,10.4,-,0.06,Rain,Light Rain,220,2013-01-27 20:34:00
1:57 PM,39.9,37.0,89,29.84,10.0,WSW,15.0,20.7,0.06,,Mostly Cloudy,240,2013-01-27 20:57:00
2:03 PM,39.2,37.4,93,29.94,10.0,WSW,10.4,20.7,N/A,,Overcast,240,2013-01-27 21:03:00
2:36 PM,39.2,37.4,93,29.94,3.0,SW,20.7,25.3,0.02,Rain,Light Rain,230,2013-01-27 21:36:00
2:48 PM,39.2,37.4,93,29.93,8.0,SW,15.0,24.2,0.02,Rain,Light Rain,220,2013-01-27 21:48:00
2:57 PM,39.0,37.9,96,29.83,10.0,SSW,13.8,20.7,0.02,Rain,Light Rain,210,2013-01-27 21:57:00
3:57 PM,37.9,37.0,97,29.82,3.0,SW,15.0,23.0,0.05,Rain,Light Rain,220,2013-01-27 22:57:00
4:57 PM,39.0,37.0,93,29.83,10.0,SW,19.6,32.2,0.05,,Overcast,220,2013-01-27 23:57:00
5:54 PM,37.4,35.6,93,29.92,10.0,SW,13.8,23.0,0.00,Rain,Light Rain,230,2013-01-28 00:54:00
5:57 PM,37.9,35.1,89,29.83,10.0,SW,13.8,21.9,0.00,Rain,Light Rain,230,2013-01-28 00:57:00
6:41 PM,37.4,35.6,93,29.92,10.0,SW,13.8,-,0.00,,Overcast,230,2013-01-28 01:41:00
6:57 PM,37.9,35.1,89,29.83,10.0,SW,13.8,19.6,0.00,,Overcast,220,2013-01-28 01:57:00
7:23 PM,37.4,33.8,87,29.92,10.0,SW,12.7,23.0,N/A,,Mostly Cloudy,230,2013-01-28 02:23:00
7:57 PM,37.0,33.1,86,29.82,10.0,SW,15.0,-,N/A,,Overcast,230,2013-01-28 02:57:00
8:18 PM,37.4,33.8,87,29.92,10.0,SW,17.3,-,N/A,,Overcast,220,2013-01-28 03:18:00
8:24 PM,37.4,33.8,87,29.92,10.0,SW,17.3,25.3,N/A,,Overcast,220,2013-01-28 03:24:00
8:57 PM,37.0,34.0,89,29.81,10.0,SW,18.4,26.5,0.01,,Overcast,220,2013-01-28 03:57:00
9:15 PM,37.4,32.0,81,29.90,10.0,SW,16.1,28.8,N/A,,Mostly Cloudy,230,2013-01-28 04:15:00
9:26 PM,35.6,32.0,87,29.91,10.0,SW,13.8,21.9,N/A,,Scattered Clouds,230,2013-01-28 04:26:00
9:57 PM,36.0,30.9,82,29.80,10.0,WSW,15.0,19.6,N/A,,Scattered Clouds,240,2013-01-28 04:57:00
10:57 PM,35.1,30.0,82,29.81,10.0,SW,13.8,24.2,N/A,,Overcast,230,2013-01-28 05:57:00
11:57 PM,34.0,28.0,79,29.79,10.0,WSW,11.5,-,N/A,,Mostly Cloudy,240,2013-01-28 06:57:00